Regional Weather Roundup
Issued by NWS

Home | Current Version | Previous Version | Graphics & Text | Print | Product List | Glossary On
Versions: 1 2 3 4 5 6 7 8 9 10 11 12 13 14 15 16 17 18 19 20 21 22 23 24 25 26 27 28 29 30 31 32 33 34 35 36 37 38 39 40 41 42 43 44 45 46 47 48 49 50
000
ASUS45 KCYS 280410
RWRWY

WYOMING REGIONAL WEATHER ROUNDUP
NATIONAL WEATHER SERVICE CHEYENNE WY
1000 PM MDT WED MAY 27 2015

NOTE:  "FAIR" INDICATES FEW OR NO CLOUDS BELOW 12,000 FEET
WITH NO SIGNIFICANT WEATHER AND/OR OBSTRUCTIONS TO VISIBILITY.

WYZ001-280500-
YELLOWSTONE NATIONAL PARK

CITY           SKY/WX    TMP DP  RH WIND       PRES   REMARKS
LK YELLOWSTONE   N/A     38  35  89 CALM      30.18R
W YELLOWSTONE  NOT AVBL

$$
WYZ002>013-054>058-071-098>099-280500-
NORTHERN WYOMING

CITY           SKY/WX    TMP DP  RH WIND       PRES   REMARKS
JACKSON        FAIR      45  41  87 S3        30.12R
CODY           CLOUDY    52  45  76 N8        30.04R
GREYBULL       MOCLDY    63  43  48 S7        29.98R
WORLAND        CLOUDY    56  49  77 E6        29.96S
SHERIDAN       CLOUDY    57  52  83 NW3       29.99R
BUFFALO        LGT RAIN  56  52  86 W8        30.04R
GILLETTE       MOCLDY    57  54  89 CALM      29.98R
HULETT         FAIR      54  52  94 E3        30.00R
NEWCASTLE      FAIR      59  48  67 SE9       29.98R

$$
WYZ014>020-022>026-101>103-280500-
CENTRAL WYOMING

CITY           SKY/WX    TMP DP  RH WIND       PRES   REMARKS
BIG PINEY      FAIR      44  40  85 CALM      30.14R
PINEDALE       FAIR      43  43 100 W3        30.15R
DUBOIS         FAIR      43  36  75 NW10      30.11R
LANDER         NOT AVBL
RIVERTON       FAIR      54  45  71 N3        30.03R
CASPER         CLOUDY    55  46  71 W7        30.03R
DOUGLAS        MOCLDY    63  44  50 VRB7      30.02R

$$
WYZ021-027>030-104>119-280500-
SOUTHERN WYOMING

CITY           SKY/WX    TMP DP  RH WIND       PRES   REMARKS
EVANSTON       CLOUDY    50  39  66 SW17G23   30.18R
KEMMERER       FAIR      46  37  71 N3        30.17R
FORT BRIDGER   PTCLDY    50  43  76 W8        30.19R
ROCK SPRINGS   MOCLDY    50  44  80 SW10      30.14R
DIXON          MOCLDY    53  46  78 S8        30.20R THUNDER
RAWLINS        FAIR      48  44  86 SW9       30.14R
SARATOGA       FAIR      46  43  87 S9        30.16F THUNDER
LARAMIE        FAIR      51  37  58 SW12      30.15R
CHEYENNE       LGT RAIN  55  49  80 SE7       30.12R
TORRINGTON     FAIR      60  53  77 E10       30.00R
PINE BLUFFS    MOCLDY    55  54  94 E6        30.09R

$$



USA.gov is the U.S. government's official web portal to all federal, state and local government web resources and services.